1393891233866,1.14242
1393891293866,1.13240
1393891353866,1.12316
1393891413866,1.12946
1393891473866,1.13731
1393891533866,1.12836
1393891593866,1.12774
1393891653866,1.12448
1393891713866,1.13263
1393891773866,1.14135
1393891833866,1.13643
1393891893866,1.14929
1393891953866,1.14745
1393892013866,1.15206
1393892073866,1.15597
1393892133866,1.16688
1393892193866,1.18113
1393892253866,1.19636
1393892313866,1.22800
1393892373866,1.23585
1393892433866,1.24658
1393892493866,1.24987
1393892553866,1.24352
1393892613866,1.24197
1393892673866,1.24200
1393892733866,1.22883
1393892793866,1.22353
1393892853866,1.21003
1393892913866,1.20711
1393892973866,1.19222
1393893033866,1.18705
1393893093866,1.18142
1393893153866,1.17252
1393893213866,1.17309
1393893273866,1.17016
1393893333866,1.16876
1393893393866,1.16958
1393893453866,1.16220
1393893513866,1.15636
1393893573866,1.16023
1393893633866,1.16448
1393893693866,1.14893
1393893753866,1.15506
1393893813866,1.14077
1393893873866,1.15169
1393893933866,1.14702
1393893993866,1.15150
1393894053866,1.15083
1393894113866,1.14246
1393894173866,1.14277
1393894233866,1.14297
1393894293866,1.14637
1393894353866,1.14849
1393894413866,1.13867
1393894473866,1.14126
1393894533866,1.14375
1393894593866,1.13398
1393894653866,1.14727
1393894713866,1.13991
1393894773866,1.14290
1393894833878,1.15169
1393894893878,1.15491
1393894953878,1.15935
1393895013878,1.16414
1393895073878,1.16575
1393895133878,1.16649
1393895193878,1.16426
1393895253878,1.16675
1393895313878,1.17051
1393895373878,1.16691
1393895433878,1.16701
1393895493878,1.17141
1393895553878,1.16928
1393895613878,1.16380
1393895673878,1.15772
1393895733878,1.16854
1393895793878,1.16106
1393895853878,1.15722
1393895913878,1.14986
1393895973878,1.15849
1393896033878,1.15824
1393896093878,1.14499
1393896153878,1.14944
1393896213878,1.15274
1393896273878,1.15820
1393896333878,1.14544
1393896393878,1.14678
1393896453878,1.14280
1393896513878,1.14828
1393896573878,1.14740
1393896633878,1.13631
1393896693878,1.13332
1393896753878,1.13234
1393896813878,1.14100
1393896873878,1.14168
1393896933878,1.13046
1393896993878,1.13745
1393897053878,1.13529
1393897113878,1.13767
1393897173878,1.13209
1393897233878,1.12232
1393897293878,1.11934
1393897353878,1.12290
1393897413878,1.12111
1393897473878,1.12796
1393897533878,1.12252
1393897593878,1.11669
1393897653878,1.11909
1393897713878,1.12289
1393897773878,1.11987
1393897833878,1.12634
1393897893878,1.12609
1393897953878,1.12262
1393898013878,1.12496
1393898073878,1.11883
1393898133878,1.11642
1393898193878,1.11064
1393898253878,1.11691
1393898313878,1.12501
1393898373878,1.12595
1393898433890,1.12358
1393898493890,1.11856
1393898553890,1.11937
1393898613890,1.11744
1393898673890,1.12100
1393898733890,1.12364
1393898793890,1.11875
1393898853890,1.11874
1393898913890,1.11881
1393898973890,1.11652
1393899033890,1.11977
1393899093890,1.12958
1393899153890,1.11254
1393899213890,1.11607
1393899273890,1.13338
1393899333890,1.12022
1393899393890,1.12514
1393899453890,1.12488
1393899513890,1.11551
1393899573890,1.11908
1393899633890,1.12234
1393899693890,1.11698
1393899753890,1.11559
1393899813890,1.12413
1393899873890,1.11804
1393899933890,1.11472
1393899993890,1.11897
1393900053890,1.11620
1393900113890,1.12092
1393900173890,1.11539
1393900233890,1.11529
1393900293890,1.11531
1393900353890,1.11095
1393900413890,1.12362
1393900473890,1.12006
1393900533890,1.11359
1393900593890,1.11723
1393900653890,1.12611
1393900713890,1.11262
1393900773890,1.11113
1393900833890,1.11469
1393900893890,1.11522
1393900953890,1.11107
1393901013890,1.11830
1393901073890,1.11375
1393901133890,1.11833
1393901193890,1.11152
1393901253890,1.12341
1393901313890,1.10693
1393901373890,1.11238
1393901433890,1.11679
1393901493890,1.12358
1393901553890,1.11005
1393901613890,1.12983
1393901673890,1.12216
1393901733890,1.12358
1393901793890,1.13086
1393901853890,1.11786
1393901913890,1.11655
1393901973890,1.12463
1393902033902,1.12233
1393902093902,1.12114
1393902153902,1.12039
1393902213902,1.11613
1393902273902,1.12244
1393902333902,1.12528
1393902393902,1.11509
1393902453902,1.12804
1393902513902,1.12891
1393902573902,1.12586
1393902633902,1.12768
1393902693902,1.13897
1393902753902,1.13374
1393902813902,1.13244
1393902873902,1.13749
1393902933902,1.12503
1393902993902,1.13734
1393903053902,1.13729
1393903113902,1.13862
1393903173902,1.13990
1393903233902,1.13359
1393903293902,1.13128
1393903353902,1.13935
1393903413902,1.13401
1393903473902,1.14027
1393903533902,1.13246
1393903593902,1.14000
1393903653902,1.13913
1393903713902,1.13532
1393903773902,1.13643
1393903833902,1.14330
1393903893902,1.14322
1393903953902,1.14802
1393904013902,1.13917
1393904073902,1.14869
1393904133902,1.14511
1393904193902,1.14336
1393904253902,1.16053
1393904313902,1.14244
1393904373902,1.15545
1393904433902,1.16234
1393904493902,1.15651
1393904553902,1.15361
1393904613902,1.16024
1393904673902,1.16405
1393904733902,1.17154
1393904793902,1.16375
1393904853902,1.16051
1393904913902,1.16472
1393904973902,1.17830
1393905033902,1.16768
1393905093902,1.17200
1393905153902,1.18730
1393905213902,1.19345
1393905273902,1.18713
1393905333902,1.19085
1393905393902,1.19179
1393905453902,1.19527
1393905513902,1.19410
1393905573902,1.19221
1393905633914,1.19271
1393905693914,1.19306
1393905753914,1.19857
1393905813914,1.19848
1393905873914,1.20876
1393905933914,1.20564
1393905993914,1.20898
1393906053914,1.19733
1393906113914,1.20428
1393906173914,1.19544
1393906233914,1.20419
1393906293914,1.19879
1393906353914,1.19978
1393906413914,1.20211
1393906473914,1.19644
1393906533914,1.19845
1393906593914,1.18344
1393906653914,1.19046
1393906713914,1.19383
1393906773914,1.19474
1393906833914,1.18736
1393906893914,1.18864
1393906953914,1.17945
1393907013914,1.18529
1393907073914,1.18488
1393907133914,1.18863
1393907193914,1.17881
1393907253914,1.17894
1393907313914,1.18805
1393907373914,1.18289
1393907433914,1.18036
1393907493914,1.17750
1393907553914,1.18358
1393907613914,1.18757
1393907673914,1.17593
1393907733914,1.19024
1393907793914,1.18720
1393907853914,1.18998
1393907913914,1.19826
1393907973914,1.20054
1393908033914,1.20006
1393908093914,1.19621
1393908153914,1.19649
1393908213914,1.21222
1393908273914,1.21267
1393908333914,1.21403
1393908393914,1.21399
1393908453914,1.21119
1393908513914,1.20850
1393908573914,1.21525
1393908633914,1.21582
1393908693914,1.23376
1393908753914,1.28530
1393908813914,1.30266
1393908873914,1.35396
1393908933914,1.39024
1393908993914,1.40250
1393909053914,1.39461
1393909113914,1.38930
1393909173914,1.37954
1393909233926,1.36452
1393909293926,1.35627
1393909353926,1.34224
1393909413926,1.33900
1393909473926,1.32149
1393909533926,1.30078
1393909593926,1.29807
1393909653926,1.28175
1393909713926,1.27142
1393909773926,1.26745
1393909833926,1.25507
1393909893926,1.24774
1393909953926,1.23814
1393910013926,1.22979
1393910073926,1.21826
1393910133926,1.19684
1393910193926,1.20213
1393910253926,1.20136
1393910313926,1.18571
1393910373926,1.18166
1393910433926,1.17836
1393910493926,1.16929
1393910553926,1.16336
1393910613926,1.15517
1393910673926,1.15904
1393910733926,1.15112
1393910793926,1.15289
1393910853926,1.15936
1393910913926,1.16630
1393910973926,1.16639
1393911033926,1.15793
1393911093926,1.15960
1393911153926,1.16336
1393911213926,1.15971
1393911273926,1.16570
1393911333926,1.16623
1393911393926,1.15688
1393911453926,1.16960
1393911513926,1.15574
1393911573926,1.17118
1393911633926,1.17350
1393911693926,1.17333
1393911753926,1.15870
1393911813926,1.16349
1393911873926,1.16470
1393911933926,1.16431
1393911993926,1.16609
1393912053926,1.16148
1393912113926,1.15759
1393912173926,1.16084
1393912233926,1.16388
1393912293926,1.15192
1393912353926,1.15315
1393912413926,1.14993
1393912473926,1.14614
1393912533926,1.14618
1393912593926,1.13922
1393912653926,1.13792
1393912713926,1.14677
1393912773926,1.13685
1393912833938,1.14130
1393912893938,1.13700
1393912953938,1.14203
1393913013938,1.14318
1393913073938,1.13120
1393913133938,1.15097
1393913193938,1.14695
1393913253938,1.13927
1393913313938,1.14613
1393913373938,1.14662
1393913433938,1.14536
1393913493938,1.15382
1393913553938,1.15364
1393913613938,1.15406
1393913673938,1.14869
1393913733938,1.15795
1393913793938,1.15733
1393913853938,1.15291
1393913913938,1.15518
1393913973938,1.15692
1393914033938,1.15855
1393914093938,1.15953
1393914153938,1.16239
1393914213938,1.15358
1393914273938,1.15081
1393914333938,1.16255
1393914393938,1.16623
1393914453938,1.16529
1393914513938,1.17883
1393914573938,1.18145
1393914633938,1.16948
1393914693938,1.18205
1393914753938,1.17276
1393914813938,1.17744
1393914873938,1.18904
1393914933938,1.19073
1393914993938,1.20424
1393915053938,1.20866
1393915113938,1.19944
1393927833984,1.16001
1393927893984,1.15198
1393927953984,1.14918
1393928013984,1.15063
1393928073984,1.14386
1393928133984,1.14427
1393928193984,1.13679
1393928253984,1.14168
1393928313984,1.12754
1393928373984,1.13215
1393928433984,1.13787
1393928493984,1.13303
1393928553984,1.14524
1393928613984,1.15558
1393928673984,1.18936
1393928733984,1.23371
1393928793984,1.25417
1393928853984,1.24592
1393928913984,1.23290
1393928973984,1.21911
1393929033984,1.20483
1393929093984,1.19474
1393929153984,1.18289
1393929213984,1.19240
1393929273984,1.18995
1393929333984,1.19074
1393929393984,1.19056
1393929453984,1.18753
1393929513984,1.18886
1393929573984,1.18949
1393929633984,1.17906
1393929693984,1.18743
1393929753984,1.17767
1393929813984,1.18087
1393929873984,1.17757
1393929933984,1.18077
1393929993984,1.16897
1393930053984,1.17478
1393930113984,1.17529
1393930173984,1.18310
1393930233984,1.18133
1393930293984,1.18456
1393930353984,1.18193
1393930413984,1.19486
1393930473984,1.18336
1393930533984,1.20638
1393930593984,1.20384
1393930653984,1.20331
1393930713984,1.20756
1393930773984,1.21196
1393930833996,1.21775
1393930893996,1.21916
1393930953996,1.23030
1393931013996,1.23629
1393931073996,1.25130
1393931133996,1.25134
1393931193996,1.25294
1393931253996,1.23561
1393931313996,1.26073
1393931373996,1.25236
1393931433996,1.24740
1393931493996,1.25077
1393931553996,1.24238
1393931613996,1.25162
1393931673996,1.22524
1393931733996,1.24064
1393931793996,1.24964
1393931853996,1.25366
1393931913996,1.26425
1393931973996,1.26246
1393932033996,1.26583
1393932093996,1.27383
1393932153996,1.27945
1393932213996,1.29819
1393932273996,1.29967
1393932333996,1.30920
1393932393996,1.30674
1393932453996,1.32305
1393932513996,1.32113
1393932573996,1.32841
1393932633996,1.32146
1393932693996,1.32648
1393932753996,1.32504
1393932813996,1.32672
1393932873996,1.32524
1393932933996,1.33134
1393932993996,1.32828
1393933053996,1.32903
1393933113996,1.32366
1393933173996,1.32831
1393933233996,1.33246
1393933293996,1.32119
1393933353996,1.32837
1393933413996,1.32274
1393933473996,1.32979
1393933533996,1.32790
1393933593996,1.32956
1393933653996,1.32784
1393933713996,1.31756
1393933773996,1.32164
1393933833996,1.30317
1393933893996,1.30677
1393933953996,1.29967
1393934013996,1.29481
1393934073996,1.30234
1393934133996,1.29293
1393934193996,1.28885
1393934253996,1.28195
1393934313996,1.27759
1393934373996,1.28214
1393934434008,1.28173
1393934494008,1.26452
1393934554008,1.27644
1393934614008,1.27121
1393934674008,1.27091
1393934734008,1.26261
1393934794008,1.26648
1393934854008,1.27508
1393934914008,1.26891
1393934974008,1.25966
1393935034008,1.26790
1393935094008,1.26451
1393935154008,1.25779
1393935214008,1.26353
1393935274008,1.26409
1393935334008,1.26223
1393935394008,1.25380
1393935454008,1.25585
1393935514008,1.25332
1393935574008,1.25036
1393935634008,1.25163
1393935694008,1.24131
1393935754008,1.24708
1393935814008,1.24131
1393935874008,1.23802
1393935934008,1.24209
1393935994008,1.23325
1393936054008,1.23436
1393936114008,1.22978
1393936174008,1.23004
1393936234008,1.21354
1393936294008,1.21489
1393936354008,1.21845
1393936414008,1.21032
1393936474008,1.21295
1393936534008,1.20980
1393936594008,1.20756
1393936654008,1.20906
1393936714008,1.20126
1393936774008,1.20383
1393936834008,1.20291
1393936894008,1.20502
1393936954008,1.19624
1393937014008,1.19352
1393937074008,1.18885
1393937134008,1.18752
1393937194008,1.18571
1393937254008,1.19771
1393937314008,1.18809
1393937374008,1.19439
1393937434008,1.18569
1393937494008,1.18312
1393937554008,1.18069
1393937614008,1.18500
1393937674008,1.18281
1393937734008,1.17456
1393937794008,1.17949
1393937854008,1.17287
1393937914008,1.17251
1393937974008,1.17553
1393938034020,1.17288
1393938094020,1.17493
1393938154020,1.16601
1393938214020,1.16476
1393938274020,1.16977
1393938334020,1.16340
1393938394020,1.17081
1393938454020,1.15961
1393938514020,1.16154
1393938574020,1.16455
1393938634020,1.16144
1393938694020,1.16285
1393938754020,1.15933
1393938814020,1.15433
1393938874020,1.16405
1393938934020,1.15019
1393938994020,1.15594
1393939054020,1.15161
1393939114020,1.15024
1393939174020,1.14744
1393939234020,1.15352
1393939294020,1.15087
1393939354020,1.15188
1393939414020,1.13673
1393939474020,1.14647
1393939534020,1.14470
1393939594020,1.15076
1393939654020,1.14291
1393939714020,1.14394
1393939774020,1.14322
1393939834020,1.13984
1393939894020,1.14560
1393939954020,1.14422
1393940014020,1.14376
1393940074020,1.12498
1393940134020,1.13784
1393940194020,1.14330
1393940254020,1.14066
1393940314020,1.12869
1393940374020,1.13379
1393940434020,1.13922
1393940494020,1.14525
1393940554020,1.14576
1393940614020,1.13555
1393940674020,1.14368
1393940734020,1.14471
1393940794020,1.13038
1393940854020,1.13762
1393940914020,1.14173
1393940974020,1.13462
1393941034020,1.14015
1393941094020,1.13782
1393941154020,1.13526
1393941214020,1.13255
1393941274020,1.14019
1393941334020,1.14378
1393941394020,1.14547
1393941454020,1.13769
1393941514020,1.14555
1393941574020,1.13998
1393941634032,1.13663
1393941694032,1.14898
1393941754032,1.14362
1393941814032,1.13250
1393941874032,1.15221
1393941934032,1.14694
1393941994032,1.13999
1393942054032,1.19862
1393942114032,1.14314
1393942174032,1.14651
1393942234032,1.14419
1393942294032,1.14586
1393942354032,1.14857
1393942414032,1.13443
1393942474032,1.13669
1393942534032,1.14029
1393942594032,1.13265
1393942654032,1.12909
1393942714032,1.13897
1393942774032,1.14171
1393942834032,1.14544
1393942894032,1.13157
1393942954032,1.13778
1393943014032,1.13762
1393943074032,1.14121
1393943134032,1.12978
1393943194032,1.13816
1393943254032,1.13200
1393943314032,1.14894
1393943374032,1.14588
1393943434032,1.15104
1393943494032,1.15018
1393943554032,1.14741
1393943614032,1.14425
1393943674032,1.15091
1393943734032,1.14104
1393943794032,1.14583
1393943854032,1.14477
1393943914032,1.14279
1393943974032,1.13967
1393944034032,1.13409
1393944094032,1.14864
1393944154032,1.13772
1393944214032,1.13897
1393944274032,1.13362
1393944334032,1.13686
1393944394032,1.14031
1393944454032,1.13422
1393944514032,1.13738
1393944574032,1.13470
1393944634032,1.13310
1393944694032,1.14082
1393944754032,1.13166
1393944814032,1.14205
1393944874032,1.14209
1393944934032,1.13993
1393944994032,1.13388
1393945054032,1.14148
1393945114032,1.13774
1393945174032,1.13880
1393945234044,1.13528
1393945294044,1.13849
1393945354044,1.13548
1393945414044,1.13248
1393945474044,1.13280
1393945534044,1.13567
1393945594044,1.13925
1393945654044,1.14152
1393945714044,1.14065
1393945774044,1.13518
1393945834044,1.12912
1393945894044,1.13120
1393945954044,1.13321
1393946014044,1.14128
1393946074044,1.11868
1393946134044,1.12220
1393946194044,1.13605
1393946254044,1.13255
1393946314044,1.12863
1393946374044,1.12042
1393946434044,1.12581
1393946494044,1.12602
1393946554044,1.12008
1393946614044,1.12752
1393946674044,1.12042
1393946734044,1.11963
1393946794044,1.12753
1393946854044,1.12212
1393946914044,1.13168
1393946974044,1.13159
1393947034044,1.12811
1393947094044,1.12013
1393947154044,1.12766
1393947214044,1.12456
1393947274044,1.13053
1393947334044,1.12653
1393947394044,1.12268
1393947454044,1.12179
1393947514044,1.12730
1393947574044,1.13771
1393947634044,1.13191
1393947694044,1.12723
1393947754044,1.12393
1393947814044,1.12678
1393947874044,1.12886
1393947934044,1.12863
1393947994044,1.13094
1393948054044,1.13121
1393948114044,1.11981
1393948174044,1.12456
1393948234044,1.12559
1393948294044,1.12514
1393948354044,1.13005
1393948414044,1.12339
1393948474044,1.12660
1393948534044,1.12441
1393948594044,1.12218
1393948654044,1.12495
1393948714044,1.12595
1393948774044,1.12172
1393948834056,1.12563
1393948894056,1.11631
1393948954056,1.12516
1393949014056,1.12655
1393949074056,1.12887
1393949134056,1.11868
1393949194056,1.11513
1393949254056,1.12986
1393949314056,1.13056
1393949374056,1.12624
1393949434056,1.13655
1393949494056,1.13081
1393949554056,1.12761
1393949614056,1.12078
1393949674056,1.12338
1393949734056,1.12484
1393949794056,1.13034
1393949854056,1.13162
1393949914056,1.13011
1393949974056,1.14526
1393950034056,1.13392
1393950094056,1.13135
1393950154056,1.14420
1393950214056,1.14269
1393950274056,1.12567
1393950334056,1.14377
1393950394056,1.13618
1393950454056,1.14249
1393950514056,1.14110
1393950574056,1.14585
1393950634056,1.15039
1393950694056,1.15315
1393950754056,1.14280
1393950814056,1.14390
1393950874056,1.14703
1393950934056,1.14461
1393950994056,1.15359
1393951054056,1.14381
1393951114056,1.14914
1393951174056,1.13186
1393951234056,1.14846
1393951294056,1.13387
1393951354056,1.14763
1393951414056,1.14874
1393951474056,1.13694
1393951534056,1.14392
1393951594056,1.14370
1393951654056,1.15135
1393951714056,1.14408
1393951774056,1.14383
1393951834056,1.14874
1393951894056,1.15233
1393951954056,1.15759
1393952014056,1.15726
1393952074056,1.15782
1393952134056,1.15379
1393952194056,1.16274
1393952254056,1.16668
1393952314056,1.15714
1393952374056,1.16721
1393952434068,1.17445
1393952494068,1.17642
1393952554068,1.16601
1393952614068,1.17820
1393952674068,1.18218
1393952734068,1.17773
1393952794068,1.18098
1393952854068,1.18394
1393952914068,1.18347
1393952974068,1.18694
1393953034068,1.18769
1393953094068,1.18046
1393953634068,1.18494
1393953694068,1.18191
1393953754068,1.18228
1393953814068,1.17315
1393953874068,1.17249
1393953934068,1.16289
1393953994068,1.17032
1393954054068,1.16390
1393954114068,1.17855
1393954174068,1.16367
1393954234068,1.16229
1393954294068,1.16455
1393954354068,1.15940
1393954414068,1.15346
1393954474068,1.16272
1393954534068,1.16001
1393954594068,1.16272
1393954654068,1.15171
1393954714068,1.15687
1393954774068,1.16327
1393954834068,1.15455
1393954894068,1.16580
1393954954068,1.17101
1393955014068,1.16631
1393955074068,1.16581
1393955134068,1.16592
1393955194068,1.16800
1393955254068,1.17114
1393955314068,1.16768
1393955374068,1.15656
1393955434068,1.16897
1393955494068,1.17910
1393955554068,1.16755
1393955614068,1.17068
1393955674068,1.16670
1393955734068,1.17129
1393955794068,1.16503
1393955854068,1.16511
1393955914068,1.17457
1393955974068,1.17066
1393956034079,1.17859
1393956094079,1.17929
1393956154079,1.17389
1393956214079,1.17640
1393956274079,1.17364
1393956334079,1.17862
1393956394079,1.17187
1393956454079,1.19858
1393956514079,1.19860
1393956574079,1.19821
1393956634079,1.20099
1393956694079,1.20161
1393956754079,1.18617
1393956814079,1.20321
1393956874079,1.19377
1393956934079,1.20240
1393956994079,1.20714
1393957054079,1.19424
1393957114079,1.20797
1393957174079,1.20543
1393957234079,1.20181
1393957294079,1.21458
1393957354079,1.20018
1393957414079,1.20538
1393957474079,1.20670
1393957534079,1.20344
1393957594079,1.20894
1393957654079,1.20273
1393957714079,1.22692
1393957774079,1.21344
1393957834079,1.21845
1393957894079,1.21541
1393957954079,1.22514
1393958014079,1.22760
1393958074079,1.22078
1393958134079,1.22789
1393958194079,1.23718
1393958254079,1.23857
1393958314079,1.24163
1393958374079,1.24715
1393958434079,1.23846
1393958494079,1.24229
1393958554079,1.24078
1393958614079,1.23460
1393958674079,1.23963
1393958734079,1.23278
1393958794079,1.24246
1393958854079,1.24733
1393958914079,1.24946
1393958974079,1.24439
1393959034079,1.25129
1393959094079,1.25057
1393959154079,1.24997
1393959214079,1.24778
1393959274079,1.24474
1393959334079,1.24925
1393959394079,1.24843
1393959454079,1.24640
1393959514079,1.23862
1393959574079,1.24688
1393959634091,1.25287
1393959694091,1.23594
1393959754091,1.24097
1393959814091,1.23407
1393959874091,1.24709
1393959934091,1.24249
1393959994091,1.24340
1393960054091,1.24331
1393960114091,1.23999
1393960174091,1.24979
1393960234091,1.24168
1393960294091,1.24277
1393960354091,1.24510
1393960414091,1.24385
1393960474091,1.25350
1393960534091,1.24935
1393960594091,1.24109
1393960654091,1.25875
1393960714091,1.25953
1393960774091,1.26058
1393960834091,1.24989
1393960894091,1.27235
1393960954091,1.27523
1393961014091,1.27691
1393961074091,1.30277
1393961134091,1.30912
1393961194091,1.32646
1393961254091,1.31882
1393961314091,1.31392
1393961374091,1.29876
1393961434091,1.28689
1393961494091,1.28971
1393961554091,1.28873
1393961614091,1.29153
1393961674091,1.28062
1393961734091,1.28463
1393961794091,1.27232
1393961854091,1.26821
1393961914091,1.26513
1393961974091,1.26327
1393962034091,1.26345
1393962094091,1.25830
1393962154091,1.24811
1393962214091,1.25904
1393962274091,1.25471
1393962334091,1.26132
1393962394091,1.24517
1393962454091,1.25516
1393962514091,1.24132
1393962574091,1.23915
1393962634091,1.24112
1393962694091,1.24142
1393962754091,1.23240
1393962814091,1.23522
1393962874091,1.22236
1393962934091,1.22391
1393962994091,1.22254
1393963054091,1.22778
1393963114091,1.22553
1393963174091,1.22732
1393963234103,1.22914
1393963294103,1.22398
1393963354103,1.22640
1393963414103,1.22340
1393963474103,1.23984
1393963534103,1.23570
1393963594103,1.23845
1393963654103,1.23989
1393963714103,1.23592
1393963774103,1.23521
1393963834103,1.23730
1393963894103,1.24083
1393963954103,1.23909
1393964014103,1.24447
1393964074103,1.21962
1393964134103,1.23112
1393964194103,1.23303
1393964254103,1.23671
1393964314103,1.22776
1393964374103,1.23124
1393964434103,1.21972
1393964494103,1.23278
1393964554103,1.23179
1393964614103,1.23342
1393964674103,1.22819
1393964734103,1.22420
1393964794103,1.21703
1393964854103,1.21500
1393964914103,1.21472
1393964974103,1.21057
1393965034103,1.20853
1393965094103,1.20202
1393965154103,1.20533
1393965214103,1.21473
1393965274103,1.20089
1393965334103,1.21224
1393965394103,1.20067
1393965454103,1.19584
1393965514103,1.21151
1393965574103,1.20180
1393965634103,1.19652
1393965694103,1.19789
1393965754103,1.20237
1393965814103,1.19940
1393965874103,1.19881
1393965934103,1.18786
1393965994103,1.19235
1393966054103,1.20226
1393966114103,1.21600
1393966174103,1.20448
1393966234103,1.19991
1393966294103,1.19979
1393966354103,1.20212
1393966414103,1.19300
1393966474103,1.18792
1393966534103,1.19174
1393966594103,1.19338
1393966654103,1.18262
1393966714103,1.19090
1393966774103,1.18419
1393966834115,1.18217
1393966894115,1.17871
1393966954115,1.19033
1393967014115,1.18257
1393967074115,1.17766
1393967134115,1.18267
1393967194115,1.18161
1393967254115,1.17942
1393967314115,1.16778
1393967374115,1.17050
1393967434115,1.18058
1393967494115,1.17912
1393967554115,1.17140
1393967614115,1.17965
1393967674115,1.16972
1393967734115,1.17465
1393967794115,1.16251
1393967854115,1.16199
1393967914115,1.16526
1393967974115,1.17235
1393968034115,1.17168
1393968094115,1.17664
1393968154115,1.16667
1393968214115,1.17719
1393968274115,1.17530
1393968334115,1.16557
1393968394115,1.17609
1393968454115,1.16912
1393968514115,1.17122
1393968574115,1.16898
1393968634115,1.16990
1393968694115,1.15882
1393968754115,1.16675
1393968814115,1.15991
1393968874115,1.16812
1393968934115,1.16477
1393968994115,1.16556
1393969054115,1.17182
1393969114115,1.16306
1393969174115,1.16138
1393969234115,1.16113
1393969294115,1.17283
1393969354115,1.15762
1393969414115,1.15884
1393969474115,1.16742
1393969534115,1.15950
1393969594115,1.15665
1393969654115,1.16403
1393969714115,1.17980